This demonstration page uses our WeatherBlox Daily Observations layout. Learn more.

Left ArrowRight Arrow

44.8408, -93.29828

Hourly Observations for February 7, 2022

Temp ( °F °C ) Dew Point ( °F °C ) Humidity (%) Winds ( mph kmh ) Pressure ( in mb ) Visibility ( mi km ) Precip ( " mm )
12:53 am 00:53 Clear 4 -15.6 -4 -20 69 69 W 5 7 30.32 1027 10 16 0.00 0.00
1:53 am 01:53 Clear 2 -16.7 -4 -20 76 76 W 6 9 30.32 1027 10 16 0.00 0.00
2:53 am 02:53 Clear 2 -16.7 -5 -20.6 72 72 Calm 30.32 1027 7 11 0.00 0.00
3:53 am 03:53 Clear 1 -17.2 -5 -20.6 75 75 WSW 3 6 30.32 1027 10 16 0.00 0.00
4:53 am 04:53 Mostly Clear 0 -17.8 -5 -20.6 79 79 SW 5 7 30.32 1027 10 16 0.00 0.00
5:53 am 05:53 Partly Cloudy 0 -17.8 -5 -20.6 79 79 Calm 30.31 1026 10 16 0.00 0.00
6:53 am 06:53 Partly Cloudy -1 -18.3 -5 -20.6 82 82 S 3 6 30.30 1026 10 16 0.00 0.00
7:53 am 07:53 Mostly Sunny -1 -18.3 -5 -20.6 82 82 SW 5 7 30.31 1026 10 16 0.00 0.00
8:53 am 08:53 Mostly Sunny 0 -17.8 -4 -20 83 83 Calm 30.30 1026 10 16 0.00 0.00
9:53 am 09:53 Mostly Cloudy 4 -15.6 -2 -18.9 76 76 Calm 30.29 1026 10 16 0.00 0.00
10:53 am 10:53 Cloudy 8 -13.3 1 -17.2 73 73 Calm 30.28 1026 10 16 0.00 0.00
11:20 am 11:20 Cloudy 9 -12.8 1 -17.2 70 70 SE 6 9 30.28 1026 10 16 0.00 0.00
11:36 am 11:36 Cloudy 11 -11.7 2 -16.7 67 67 SSE 5 7 30.29 1026 10 16 0.00 0.00
11:53 am 11:53 Cloudy 12 -11.1 2 -16.7 64 64 VRB 3 6 30.25 1024 10 16 0.00 0.00
12:53 pm 12:53 Cloudy 14 -10 2 -16.7 58 58 S 8 13 30.21 1023 10 16 0.00 0.00
1:53 pm 13:53 Cloudy 16 -8.9 2 -16.7 54 54 S 10 17 30.17 1022 10 16 0.00 0.00
2:53 pm 14:53 Mostly Cloudy 18 -7.8 5 -15 57 57 S 6 9 30.17 1022 10 16 0.00 0.00
3:53 pm 15:53 Mostly Cloudy 19 -7.2 6 -14.4 57 57 SE 9 15 30.14 1021 10 16 0.00 0.00
4:53 pm 16:53 Partly Cloudy 19 -7.2 7 -13.9 59 59 SSE 13 20 30.13 1020 10 16 0.00 0.00
5:53 pm 17:53 Mostly Clear 18 -7.8 6 -14.4 59 59 SSE 8 13 30.13 1020 10 16 0.00 0.00
6:53 pm 18:53 Mostly Clear 17 -8.3 7 -13.9 64 64 SSE 8 13 30.12 1020 10 16 0.00 0.00
7:53 pm 19:53 Mostly Clear 15 -9.4 6 -14.4 67 67 SSE 7 11 30.10 1019 10 16 0.00 0.00
8:53 pm 20:53 Mostly Clear 16 -8.9 6 -14.4 65 65 SSE 8 13 30.08 1019 10 16 0.00 0.00
9:53 pm 21:53 Partly Cloudy 14 -10 5 -15 67 67 SSE 7 11 30.05 1018 10 16 0.00 0.00
10:53 pm 22:53 Partly Cloudy 13 -10.6 5 -15 70 70 SSE 7 11 30.01 1016 10 16 0.00 0.00
11:53 pm 23:53 Partly Cloudy 13 -10.6 6 -14.4 74 74 SSE 7 11 29.98 1015 10 16 0.00 0.00

Powered by AerisWeather